This is the latest recevied weather packets stored in our database for station/object Rana. If no packets are shown the sender has not sent any weather packets the latest 1 day(s).
| Time | Temp. | Humidity | Pressure | Rain* | Wind** | Luminosity | Snow |
|---|---|---|---|---|---|---|---|
| 1836274684 | 12.78° C | 84% | - | - | 4.92 m/s, 100° | - | - |
| 1836274383 | 12.78° C | 84% | - | - | 4.92 m/s, 100° | - | - |
| 1836274234 | 12.78° C | 84% | - | - | 5.81 m/s, 99° | - | - |
| 1836274084 | 12.78° C | 83% | - | - | 4.92 m/s, 100° | - | - |
| 1778013610 | 10° C | 85% | - | - | 8.94 m/s, 268° | - | - |
| 1778013317 | 10° C | 85% | - | - | 8.05 m/s, 276° | - | - |
| 1778013011 | 10° C | 84% | - | - | 12.96 m/s, 280° | - | - |
| 1778012711 | 10° C | 83% | - | - | 15.2 m/s, 274° | - | - |
| 1778012420 | 10° C | 81% | - | - | 17.88 m/s, 273° | - | - |
| 1778012110 | 11.11° C | 79% | - | - | 17.88 m/s, 278° | - | - |
| 1778011810 | 13.89° C | 73% | - | - | 9.83 m/s, 277° | - | - |
| 1778011512 | 15° C | 70% | - | - | 1.79 m/s, 325° | - | - |
| 1778011211 | 15° C | 70% | - | - | 3.13 m/s, 17° | - | - |
| 1778010909 | 15° C | 70% | - | - | 4.92 m/s, 42° | - | - |
| 1778010611 | 15° C | 70% | - | - | 4.92 m/s, 53° | - | - |
| 1778010311 | 15° C | 70% | - | - | 4.92 m/s, 56° | - | - |
| 1778010010 | 15° C | 69% | - | - | 5.81 m/s, 58° | - | - |
| 1778009711 | 15° C | 69% | - | - | 7.15 m/s, 54° | - | - |
| 1778009411 | 15° C | 68% | - | - | 8.05 m/s, 58° | - | - |
| 1778009110 | 15° C | 68% | - | - | 8.05 m/s, 59° | - | - |
| 1778008812 | 16.11° C | 67% | - | - | 8.94 m/s, 52° | - | - |
| 1778008511 | 16.11° C | 67% | - | - | 8.94 m/s, 54° | - | - |
| 1778008210 | 16.11° C | 66% | - | - | 8.94 m/s, 47° | - | - |
| 1778007910 | 16.11° C | 66% | - | - | 8.94 m/s, 47° | - | - |
| 1778007611 | 16.11° C | 66% | - | - | 8.94 m/s, 50° | - | - |
* Rain since midnight (hover to see other rain measurements)
** Current wind speed in m/s (hover to see current wind gust speed)